Location: Waco, TX
(31.5480°N, 97.1670°W)
Time: 22:43:30
(UTC-06:00)

ISS - Pass Details

Date: 14 November 2018
Orbit: 402 x 408 km, 51.6° (Epoch: 17 November)

Event Time Altitude Azimuth Distance (km) Brightness Sun altitude
Rises 23:04:12 0° 265° (W) 2,304 - -69.7°
Reaches altitude 10° 23:07:00 10° 292° (WNW) 1,448 - -70.1°
Maximum altitude 23:08:50 14° 326° (NW) 1,226 - -70.5°
Drops below altitude 10° 23:10:41 10° 1° (N) 1,452 - -70.8°
Sets 23:13:30 0° 28° (NNE) 2,314 - -71.2°
